When you browse on this site, cookies collect data to enhance your experience and personalize the content and advertising you see.
Visit our Privacy Policy to learn more. By continuing to use the site, you agree to this use of cookies and data.
  • In Sweden
  • List of Countries
  • For 7 days
  • Water Temperature
  • Weather Map
  • Weather Widgets
  • user-avatar
    Login

    Hourly Weather Eisenstadt

    Today, 27 May, Wednesday

    Time Temperature Precipitation Wind Pressure Humidity
    00:00 +7°C° 0 mm 4 mps 732 mmHg 86%
    01:00 +7°C° 0 mm 4 mps 732 mmHg 87%
    02:00 +7°C° 0 mm 4 mps 732 mmHg 86%
    03:00 +7°C° 0 mm 4 mps 732 mmHg 86%
    04:00 +7°C° 0 mm 4 mps 732 mmHg 86%
    05:00 +8°C° 0 mm 5 mps 732 mmHg 80%
    06:00 +10°C° 0 mm 5 mps 732 mmHg 74%
    07:00 +11°C° 0 mm 6 mps 732 mmHg 68%
    08:00 +13°C° 0 mm 6 mps 732 mmHg 63%
    09:00 +15°C° 0 mm 6 mps 732 mmHg 58%
    10:00 +16°C° 0 mm 6 mps 733 mmHg 54%
    11:00 +16°C° 0 mm 6 mps 732 mmHg 52%
    12:00 +17°C° 0 mm 6 mps 732 mmHg 50%
    13:00 +19°C° 0 mm 6 mps 731 mmHg 48%
    14:00 +19°C° 0 mm 6 mps 731 mmHg 49%
    15:00 +19°C° 0 mm 5 mps 731 mmHg 49%
    16:00 +19°C° 0 mm 5 mps 730 mmHg 49%
    17:00 +18°C° 0 mm 4 mps 730 mmHg 56%
    18:00 +15°C° 0 mm 4 mps 730 mmHg 63%
    19:00 +14°C° 0 mm 3 mps 730 mmHg 69%
    20:00 +13°C° 0 mm 3 mps 730 mmHg 72%
    21:00 +11°C° 0 mm 3 mps 730 mmHg 75%
    22:00 +10°C° 0 mm 3 mps 731 mmHg 77%
    23:00 +10°C° 0 mm 2 mps 730 mmHg 79%

    Tomorrow, 28 May, Thursday

    Time Temperature Precipitation Wind Pressure Humidity
    00:00 +9°C° 0 mm 2 mps 730 mmHg 80%
    01:00 +9°C° 0 mm 2 mps 730 mmHg 82%
    02:00 +9°C° 0 mm 2 mps 730 mmHg 81%
    03:00 +9°C° 0 mm 2 mps 730 mmHg 80%
    04:00 +8°C° 0 mm 2 mps 729 mmHg 79%
    05:00 +10°C° 0 mm 2 mps 729 mmHg 75%
    06:00 +12°C° 0 mm 3 mps 729 mmHg 71%
    07:00 +13°C° 0 mm 3 mps 729 mmHg 67%
    08:00 +14°C° 0.2 mm 3 mps 729 mmHg 69%
    09:00 +14°C° 0.2 mm 3 mps 729 mmHg 71%
    10:00 +14°C° 0.2 mm 3 mps 729 mmHg 73%
    11:00 +14°C° 0.3 mm 4 mps 729 mmHg 75%
    12:00 +13°C° 0.3 mm 4 mps 728 mmHg 77%
    13:00 +13°C° 0.3 mm 5 mps 728 mmHg 79%
    14:00 +13°C° 0.1 mm 5 mps 728 mmHg 78%
    15:00 +12°C° 0.1 mm 5 mps 728 mmHg 76%
    16:00 +12°C° 0.1 mm 5 mps 728 mmHg 75%
    17:00 +12°C° 0 mm 4 mps 728 mmHg 76%
    18:00 +12°C° 0 mm 4 mps 728 mmHg 77%
    19:00 +11°C° 0 mm 3 mps 728 mmHg 78%
    20:00 +11°C° 0 mm 3 mps 728 mmHg 78%
    21:00 +10°C° 0 mm 3 mps 728 mmHg 79%
    22:00 +9°C° 0 mm 3 mps 728 mmHg 80%
    23:00 +9°C° 0 mm 3 mps 728 mmHg 80%

    Day after tomorrow, 29 May, Friday

    Time Temperature Precipitation Wind Pressure Humidity
    00:00 +9°C° 0 mm 3 mps 728 mmHg 80%
    01:00 +8°C° 0 mm 3 mps 727 mmHg 80%
    02:00 +8°C° 0 mm 3 mps 727 mmHg 80%
    03:00 +8°C° 0 mm 3 mps 727 mmHg 81%
    04:00 +8°C° 0 mm 3 mps 727 mmHg 81%
    05:00 +8°C° 0 mm 4 mps 727 mmHg 78%
    06:00 +9°C° 0 mm 5 mps 727 mmHg 74%
    07:00 +10°C° 0 mm 6 mps 727 mmHg 71%
    08:00 +11°C° 0 mm 6 mps 727 mmHg 65%
    09:00 +13°C° 0 mm 6 mps 727 mmHg 60%
    10:00 +14°C° 0 mm 7 mps 727 mmHg 54%
    11:00 +15°C° 0 mm 7 mps 727 mmHg 50%
    12:00 +15°C° 0 mm 7 mps 727 mmHg 45%
    13:00 +16°C° 0 mm 7 mps 726 mmHg 40%
    14:00 +16°C° 0 mm 7 mps 726 mmHg 41%
    15:00 +16°C° 0 mm 7 mps 726 mmHg 42%
    16:00 +15°C° 0 mm 7 mps 726 mmHg 44%
    17:00 +14°C° 0 mm 6 mps 726 mmHg 51%
    18:00 +13°C° 0 mm 5 mps 726 mmHg 58%
    19:00 +11°C° 0 mm 4 mps 726 mmHg 65%
    20:00 +10°C° 0 mm 3 mps 726 mmHg 68%
    21:00 +9°C° 0 mm 3 mps 726 mmHg 71%
    22:00 +8°C° 0 mm 3 mps 727 mmHg 73%
    23:00 +8°C° 0 mm 3 mps 727 mmHg 74%

    30 May, Saturday

    Time Temperature Precipitation Wind Pressure Humidity
    00:00 +8°C° 0 mm 3 mps 727 mmHg 74%
    01:00 +8°C° 0 mm 3 mps 727 mmHg 74%
    02:00 +7°C° 0 mm 3 mps 726 mmHg 77%
    03:00 +7°C° 0 mm 3 mps 726 mmHg 80%
    04:00 +5°C° 0 mm 3 mps 726 mmHg 83%
    05:00 +6°C° 0 mm 4 mps 726 mmHg 75%
    06:00 +8°C° 0 mm 5 mps 726 mmHg 68%
    07:00 +9°C° 0 mm 5 mps 727 mmHg 61%
    08:00 +10°C° 0 mm 5 mps 726 mmHg 57%
    09:00 +11°C° 0 mm 6 mps 726 mmHg 53%
    10:00 +13°C° 0 mm 6 mps 726 mmHg 49%
    11:00 +13°C° 0 mm 5 mps 726 mmHg 49%
    12:00 +14°C° 0 mm 5 mps 726 mmHg 48%
    13:00 +14°C° 0 mm 5 mps 725 mmHg 48%
    14:00 +14°C° 0 mm 5 mps 725 mmHg 49%
    15:00 +14°C° 0 mm 5 mps 725 mmHg 51%
    16:00 +14°C° 0 mm 5 mps 725 mmHg 52%
    17:00 +13°C° 0.1 mm 4 mps 725 mmHg 59%
    18:00 +12°C° 0.1 mm 3 mps 725 mmHg 66%
    19:00 +11°C° 0.1 mm 3 mps 724 mmHg 74%
    20:00 +10°C° 0.1 mm 2 mps 725 mmHg 78%
    21:00 +9°C° 0.1 mm 2 mps 725 mmHg 82%
    22:00 +8°C° 0.1 mm 2 mps 725 mmHg 86%
    23:00 +7°C° 0 mm 2 mps 725 mmHg 86%

    31 May, Sunday

    Time Temperature Precipitation Wind Pressure Humidity
    00:00 +7°C° 0 mm 2 mps 725 mmHg 87%
    01:00 +7°C° 0 mm 3 mps 725 mmHg 87%
    02:00 +5°C° 0 mm 3 mps 725 mmHg 86%
    03:00 +5°C° 0 mm 3 mps 724 mmHg 86%
    04:00 +5°C° 0 mm 3 mps 724 mmHg 86%
    05:00 +8°C° 0 mm 3 mps 725 mmHg 80%
    06:00 +8°C° 0 mm 4 mps 725 mmHg 74%
    07:00 +11°C° 0 mm 4 mps 725 mmHg 68%
    08:00 +12°C° 0 mm 5 mps 725 mmHg 62%
    09:00 +13°C° 0 mm 5 mps 725 mmHg 57%
    10:00 +15°C° 0 mm 5 mps 725 mmHg 51%
    11:00 +15°C° 0 mm 5 mps 724 mmHg 50%
    12:00 +15°C° 0 mm 5 mps 724 mmHg 50%
    13:00 +16°C° 0 mm 5 mps 724 mmHg 49%
    14:00 +16°C° 0 mm 5 mps 724 mmHg 51%
    15:00 +15°C° 0 mm 5 mps 724 mmHg 52%
    16:00 +15°C° 0 mm 5 mps 723 mmHg 54%
    17:00 +14°C° 0.1 mm 4 mps 723 mmHg 63%
    18:00 +12°C° 0.1 mm 4 mps 723 mmHg 72%
    19:00 +11°C° 0.1 mm 4 mps 723 mmHg 81%
    20:00 +10°C° 0.1 mm 4 mps 723 mmHg 81%
    21:00 +10°C° 0.1 mm 4 mps 723 mmHg 82%
    22:00 +8°C° 0.1 mm 4 mps 723 mmHg 82%
    23:00 +8°C° 0.5 mm 4 mps 723 mmHg 86%

    1 June, Monday

    Time Temperature Precipitation Wind Pressure Humidity
    00:00 +9°C° 0.5 mm 3 mps 723 mmHg 89%
    01:00 +9°C° 0.5 mm 3 mps 723 mmHg 92%
    02:00 +9°C° 1.5 mm 3 mps 722 mmHg 93%
    03:00 +9°C° 1.5 mm 3 mps 722 mmHg 93%
    04:00 +9°C° 1.5 mm 3 mps 722 mmHg 94%
    05:00 +9°C° 1.2 mm 3 mps 722 mmHg 94%
    06:00 +9°C° 1.2 mm 3 mps 722 mmHg 94%
    07:00 +10°C° 1.2 mm 3 mps 722 mmHg 94%
    08:00 +10°C° 0.6 mm 3 mps 722 mmHg 94%
    09:00 +10°C° 0.6 mm 3 mps 723 mmHg 93%
    10:00 +11°C° 0.6 mm 3 mps 723 mmHg 93%
    11:00 +11°C° 0.3 mm 3 mps 723 mmHg 93%
    12:00 +11°C° 0.3 mm 3 mps 723 mmHg 93%
    13:00 +11°C° 0.3 mm 3 mps 723 mmHg 93%
    14:00 +12°C° 0.1 mm 3 mps 723 mmHg 90%
    15:00 +14°C° 0.1 mm 3 mps 723 mmHg 87%
    16:00 +16°C° 0.1 mm 2 mps 723 mmHg 84%
    17:00 +15°C° 0.1 mm 2 mps 723 mmHg 86%
    18:00 +15°C° 0.1 mm 2 mps 723 mmHg 88%
    19:00 +14°C° 0.1 mm 2 mps 723 mmHg 89%
    20:00 +14°C° 0.1 mm 2 mps 723 mmHg 90%
    21:00 +13°C° 0.1 mm 2 mps 723 mmHg 91%
    22:00 +12°C° 0.1 mm 2 mps 723 mmHg 92%
    23:00 +12°C° 0 mm 2 mps 723 mmHg 92%
    Show more